[[{"header":{"parameterUnit":"m.s-1","parameterCategory":1,"la1":30.2991,"la2":30.254,"lo1":-89.0895,"lo2":-89.0444,"dy":0.0017,"dx":0.0017,"nx":28,"ny":28,"refTime":"2024-08-28T21:00:00:Z","depth":0,"parameterNumber":2,"parameterNumberName":"U-component_of_WINDS"},"data":[0,0,0,0,0,0,0,0,0,0,0,0,0,0,0,0,0,0,0,0,0,0,0,0,0,0,0,0,0,0,0,0,0,0,0,0,0,0,0,0,0,0,0,0,0,0,0,0,0,0,0,0,0,0,0,0,0,0,-3.108,-3.1081,0,-3.1111,-3.1111,-3.1111,-3.1103,-3.1103,-3.1102,-3.1102,-3.1132,-3.1133,-3.1134,0,0,0,0,0,0,0,0,0,0,0,0,0,-3.1016,-3.1017,-3.108,-3.1081,-3.1081,-3.1111,-3.1111,-3.1111,-3.1103,-3.1103,-3.1102,-3.1101,-3.1131,-3.1133,-3.1135,0,0,0,0,0,0,0,0,0,0,0,0,0,-3.1045,-3.1017,-3.108,-3.1081,-3.1081,-3.1111,-3.1111,-3.1112,-3.1104,-3.1103,-3.1102,-3.1101,-3.1131,-3.1133,-3.1135,-3.1166,0,0,-3.1141,-3.1142,0,0,0,0,0,0,0,0,-3.1043,-3.1047,-3.108,-3.1081,-3.1081,-3.1102,-3.1099,-3.113,-3.1104,-3.1095,-3.1102,-3.11,-3.1123,-3.1125,-3.1133,-3.1167,-3.1168,-3.1141,-3.1142,-3.1143,-3.1144,0,0,0,0,0,0,0,-3.1041,-3.1046,-3.1092,-3.1081,-3.1081,-3.1079,-3.1083,-3.1105,-3.1113,-3.1096,-3.1095,-3.1099,-3.1123,-3.1131,-3.1134,-3.1169,-3.1141,-3.1143,-3.1144,-3.1145,-3.1231,-3.1232,0,0,0,0,0,0,-3.1039,-3.1044,-3.1091,-3.1093,-3.1059,-3.1081,-3.1085,-3.1096,-3.1113,-3.1115,-3.11,-3.1098,-3.1128,-3.1131,-3.1135,-3.1172,-3.1143,-3.1145,-3.1146,-3.123,-3.1231,-3.1232,0,0,0,0,0,0,-3.1037,-3.1043,-3.109,-3.1068,-3.1074,-3.1083,-3.1096,-3.1097,-3.1106,-3.1116,-3.1118,-3.1106,-3.1127,-3.1132,-3.1158,-3.1173,-3.1146,-3.1148,-3.1228,-3.123,-3.1231,-3.1246,0,0,0,0,0,0,-3.1035,-3.1042,-3.1054,-3.1069,-3.1076,-3.1113,-3.1097,-3.1099,-3.1109,-3.1108,-3.1123,-3.1125,-3.1127,-3.1155,-3.116,-3.1175,-3.115,-3.1227,-3.1229,-3.1231,-3.1244,-3.1248,-3.1251,0,0,0,0,0,-3.1033,-3.1056,-3.1054,-3.106,-3.109,-3.1114,-3.1117,-3.112,-3.1111,-3.1122,-3.1129,-3.1124,-3.1171,-3.1158,-3.1164,-3.1179,-3.1226,-3.1228,-3.1231,-3.1243,-3.1247,-3.1251,0,0,0,0,0,0,-3.1042,-3.1058,-3.1056,-3.1085,-3.1098,-3.1112,-3.1127,-3.1124,-3.114,-3.1138,-3.1141,-3.1144,-3.1171,-3.1178,-3.1163,-3.121,-3.1197,-3.1201,-3.1204,-3.1209,-3.1212,-3.1209,-3.1151,0,0,0,0,0,-3.1048,-3.1065,-3.1079,-3.1103,-3.111,-3.1117,-3.1128,-3.1129,-3.1142,-3.1147,-3.1156,-3.117,-3.1187,-3.1199,-3.1216,-3.1246,-3.1249,-3.126,-3.1263,-3.1266,-3.1268,-3.1285,-3.129,-3.124,-3.124,-3.124,0,0,-3.1058,-3.107,-3.108,-3.1105,-3.1115,-3.1134,-3.1122,-3.1142,-3.1155,-3.115,-3.1175,-3.1183,-3.1198,-3.1227,-3.124,-3.1234,-3.1284,-3.1269,-3.1271,-3.1272,-3.1288,-3.1293,-3.1297,-3.1241,-3.1241,-3.1241,0,0,-3.1088,-3.1098,-3.1119,-3.1131,-3.1147,-3.1152,-3.1157,-3.1172,-3.1177,-3.1203,-3.12,-3.1217,-3.1247,-3.1258,-3.1268,-3.1304,-3.13,-3.131,-3.1326,-3.1343,-3.1347,-3.1351,-3.1363,-3.1367,-3.1313,-3.1313,-3.1313,0,-3.1099,-3.1126,-3.1131,-3.1151,-3.1162,-3.116,-3.1182,-3.1192,-3.1213,-3.122,-3.1214,-3.1252,-3.1262,-3.1294,-3.1303,-3.1311,-3.1317,-3.1307,-3.1346,-3.135,-3.1353,-3.1365,-3.137,-3.1314,-3.1313,-3.1313,-3.1313,0,-3.1139,-3.1159,-3.1174,-3.1195,-3.1208,-3.1229,-3.1237,-3.125,-3.1251,-3.1257,-3.1284,-3.1296,-3.1316,-3.1324,-3.1325,-3.1356,-3.1351,-3.1346,-3.1332,-3.1359,-3.137,-3.1374,-3.1315,-3.1315,-3.1314,-3.1314,0,0,-3.1172,-3.1197,-3.1202,-3.1212,-3.1231,-3.1246,-3.1268,-3.1287,-3.1298,-3.1314,-3.1331,-3.1359,-3.1354,-3.1365,-3.1367,-3.1382,-3.141,-3.1374,-3.1375,-3.1379,-3.1445,-3.1448,-3.1453,-3.1408,-3.1409,-3.141,-3.1443,0,-3.1202,-3.124,-3.1245,-3.1278,-3.1297,-3.1296,-3.1315,-3.1329,-3.1337,-3.1353,-3.1362,-3.138,-3.1373,-3.1379,-3.1394,-3.1403,-3.1422,-3.1401,-3.1424,-3.1425,-3.1418,-3.1459,-3.1462,-3.1492,-3.1447,-3.1448,-3.1449,0,-3.1241,-3.1258,-3.1293,-3.1311,-3.1319,-3.1335,-3.1355,-3.1371,-3.1387,-3.1392,-3.1405,-3.1406,-3.1429,-3.1417,-3.1448,-3.1434,-3.1444,-3.145,-3.1451,-3.1452,-3.1437,-3.1459,-3.1502,-3.1506,-3.1456,-3.1455,-3.1455,0,-3.126,-3.1292,-3.1317,-3.1326,-3.1347,-3.1359,-3.1369,-3.1384,-3.1396,-3.1413,-3.1421,-3.1441,-3.1451,-3.1467,-3.1474,-3.1464,-3.1505,-3.1493,-3.1509,-3.1508,-3.1515,-3.1514,-3.1559,-3.1525,-3.1525,-3.1525,-3.1525,0,-3.1292,-3.1313,-3.1326,-3.1341,-3.1366,-3.1373,-3.1397,-3.1406,-3.142,-3.1438,-3.144,-3.1456,-3.1464,-3.1482,-3.1488,-3.1513,-3.1518,-3.1522,-3.1523,-3.1521,-3.152,-3.1526,-3.1524,-3.1526,-3.1526,-3.1525,-3.1525,0,-3.1316,-3.1326,-3.1353,-3.1372,-3.1377,-3.1394,-3.141,-3.1425,-3.1434,-3.1456,-3.1462,-3.1474,-3.1496,-3.1505,-3.1531,-3.1535,-3.1563,-3.1564,-3.1558,-3.1558,-3.1572,-3.157,-3.1621,-3.1628,-3.1591,-3.1591,-3.1591,0,-3.1334,-3.1351,-3.1372,-3.1384,-3.1394,-3.1413,-3.1426,-3.1434,-3.1447,-3.1468,-3.1481,-3.1503,-3.152,-3.1554,-3.1566,-3.1586,-3.1586,-3.1603,-3.1589,-3.1587,-3.1585,-3.1583,-3.1585,-3.1604,-3.1605,-3.1605,-3.1605,0,-3.1366,-3.137,-3.1388,-3.1409,-3.1424,-3.1441,-3.1457,-3.1467,-3.1478,-3.1493,-3.1515,-3.1529,-3.1556,-3.1577,-3.1599,-3.1609,-3.1609,-3.161,-3.1614,-3.1611,-3.1607,-3.1609,-3.1563,-3.1608,-3.1608,-3.1608,-3.1607,-3.1607,-3.1387,-3.1402,-3.1419,-3.144,-3.1453,-3.1469,-3.1484,-3.1495,-3.1514,-3.1536,-3.1541,-3.1564,-3.1582,-3.1611,-3.1622,-3.1641,-3.1637,-3.1643,-3.1645,-3.1646,-3.1646,-3.1606,-3.1645,-3.1645,-3.1645,-3.1645,-3.1645,0,-3.1418,-3.1429,-3.1448,-3.1471,-3.1488,-3.1488,-3.1506,-3.152,-3.1541,-3.1557,-3.1575,-3.1601,-3.1622,-3.1637,-3.1658,-3.1671,-3.1671,-3.1676,-3.1674,-3.1677,-3.1649,-3.1643,-3.1675,-3.1675,-3.1675,-3.1675,-3.1675,-3.1675,-3.1435,-3.146,-3.1468,-3.15,-3.1512,-3.1535,-3.1545,-3.156,-3.1573,-3.1602,-3.162,-3.163,-3.1646,-3.1669,-3.1689,-3.1692,-3.17,-3.1704,-3.1708,-3.1682,-3.1678,-3.1675,-3.1669,-3.1706,-3.1706,-3.1733,-3.1734,-3.1734]},{"header":{"parameterUnit":"m.s-1","parameterCategory":1,"la1":30.2991,"la2":30.254,"lo1":-89.0895,"lo2":-89.0444,"dy":0.0017,"dx":0.0017,"nx":28,"ny":28,"refTime":"2024-08-28T21:00:00:Z","depth":0,"parameterNumber":3,"parameterNumberName":"V-component_of_WINDS"},"data":[0,0,0,0,0,0,0,0,0,0,0,0,0,0,0,0,0,0,0,0,0,0,0,0,0,0,0,0,0,0,0,0,0,0,0,0,0,0,0,0,0,0,0,0,0,0,0,0,0,0,0,0,0,0,0,0,0,0,3.9218,3.9218,0,3.9193,3.9193,3.9193,3.9181,3.9181,3.9182,3.9182,3.9152,3.9151,3.9151,0,0,0,0,0,0,0,0,0,0,0,0,0,3.9253,3.9252,3.9218,3.9218,3.9218,3.9193,3.9193,3.9193,3.9181,3.9181,3.9182,3.9182,3.9152,3.9151,3.9151,0,0,0,0,0,0,0,0,0,0,0,0,0,3.9234,3.9252,3.9218,3.9209,3.9208,3.9193,3.9193,3.9193,3.9181,3.9181,3.9182,3.9182,3.9153,3.9152,3.915,3.9142,0,0,3.9147,3.9146,0,0,0,0,0,0,0,0,3.9235,3.9232,3.9211,3.921,3.9209,3.9191,3.9194,3.9175,3.9181,3.9191,3.9182,3.9182,3.9165,3.9162,3.9158,3.914,3.9139,3.9147,3.9146,3.9145,3.9145,0,0,0,0,0,0,0,3.9236,3.9233,3.9208,3.9211,3.9209,3.9205,3.9203,3.9191,3.9178,3.9191,3.919,3.9187,3.9164,3.9159,3.9157,3.9139,3.9147,3.9145,3.9145,3.9144,3.9113,3.9113,0,0,0,0,0,0,3.9239,3.9235,3.9209,3.9208,3.9222,3.9205,3.9202,3.9196,3.9178,3.9175,3.9187,3.9187,3.9161,3.9158,3.9156,3.9145,3.9145,3.9144,3.9143,3.9113,3.9113,3.9113,0,0,0,0,0,0,3.924,3.9237,3.921,3.9221,3.9217,3.9204,3.9198,3.9196,3.9191,3.9176,3.9173,3.9184,3.9161,3.9157,3.9146,3.9143,3.9144,3.9142,3.9113,3.9113,3.9113,3.9122,0,0,0,0,0,0,3.9241,3.9238,3.9235,3.9221,3.9217,3.9201,3.9198,3.9195,3.9189,3.9188,3.9172,3.9169,3.9161,3.9148,3.9144,3.9142,3.9142,3.9114,3.9113,3.9113,3.9122,3.9122,3.9123,0,0,0,0,0,3.9243,3.9238,3.9235,3.9232,3.9213,3.9201,3.9199,3.919,3.9189,3.9186,3.9176,3.917,3.9144,3.9146,3.9143,3.914,3.9114,3.9113,3.9113,3.9122,3.9122,3.9123,0,0,0,0,0,0,3.925,3.9236,3.9232,3.9223,3.9214,3.92,3.9195,3.919,3.918,3.918,3.9168,3.9164,3.9153,3.9145,3.9148,3.9131,3.9128,3.9127,3.9136,3.9137,3.9137,3.9139,3.914,0,0,0,0,0,3.9251,3.9244,3.9231,3.9224,3.9219,3.9208,3.9203,3.9197,3.9186,3.9182,3.9171,3.916,3.9149,3.9142,3.9132,3.9121,3.9117,3.9117,3.9117,3.9118,3.9117,3.9111,3.911,3.9113,3.9113,3.9113,0,0,3.9252,3.9243,3.9239,3.9225,3.9217,3.9209,3.9205,3.9196,3.919,3.918,3.9168,3.916,3.9147,3.9136,3.913,3.9129,3.9116,3.9118,3.9118,3.9117,3.911,3.911,3.911,3.9112,3.9112,3.9112,0,0,3.925,3.9243,3.9237,3.9229,3.9218,3.921,3.9209,3.9195,3.919,3.9179,3.9171,3.9163,3.9145,3.9136,3.9129,3.9125,3.9119,3.9121,3.9123,3.9117,3.9117,3.9116,3.9115,3.9114,3.9121,3.9121,3.9121,0,3.9253,3.9241,3.9233,3.9226,3.9219,3.9212,3.9204,3.9197,3.9182,3.9178,3.9177,3.9155,3.9145,3.9132,3.9131,3.9125,3.9123,3.9123,3.9118,3.9117,3.9117,3.9115,3.9115,3.9121,3.9121,3.9121,3.9121,0,3.9245,3.9237,3.9233,3.9221,3.9214,3.9206,3.9197,3.9191,3.9185,3.9178,3.9166,3.9155,3.9142,3.9138,3.9132,3.9124,3.9124,3.912,3.9118,3.9117,3.9115,3.9115,3.9122,3.9121,3.9121,3.9121,0,0,3.9246,3.9231,3.9229,3.9224,3.9211,3.9204,3.9196,3.9185,3.918,3.917,3.9162,3.9148,3.9145,3.9137,3.913,3.9125,3.9122,3.9122,3.9122,3.9123,3.9112,3.9115,3.9114,3.9118,3.9118,3.9118,3.9113,0,3.9243,3.9229,3.9222,3.9211,3.9204,3.9197,3.919,3.918,3.9173,3.9165,3.9156,3.9147,3.9144,3.9139,3.9133,3.9124,3.912,3.9124,3.911,3.911,3.9114,3.9113,3.9116,3.9112,3.9113,3.9112,3.9112,0,3.9236,3.9228,3.9217,3.9206,3.9202,3.9196,3.9186,3.9178,3.9167,3.9163,3.9154,3.9148,3.9138,3.9137,3.9123,3.9126,3.912,3.9114,3.9114,3.9112,3.9111,3.9111,3.911,3.911,3.9111,3.9111,3.9111,0,3.9239,3.9225,3.9216,3.9212,3.9198,3.9194,3.9188,3.9178,3.9172,3.9162,3.9158,3.9146,3.914,3.9131,3.9121,3.9121,3.9108,3.9106,3.9103,3.9104,3.9101,3.9101,3.9099,3.9097,3.9097,3.9097,3.9097,0,3.9235,3.9229,3.9218,3.9212,3.9205,3.9196,3.9188,3.9182,3.9172,3.9165,3.9158,3.9151,3.9138,3.913,3.9122,3.9111,3.9108,3.9104,3.9102,3.9104,3.9105,3.91,3.91,3.9097,3.9097,3.9097,3.9097,0,3.9236,3.9229,3.9219,3.9208,3.9204,3.9199,3.9189,3.9183,3.9176,3.9167,3.9164,3.9152,3.9142,3.9132,3.9117,3.9111,3.9101,3.9098,3.9105,3.9104,3.9102,3.9102,3.9096,3.9095,3.9094,3.9094,3.9094,0,3.9234,3.9229,3.9218,3.9213,3.9208,3.92,3.9194,3.9185,3.9179,3.9167,3.9163,3.9152,3.9143,3.9126,3.9116,3.9104,3.9101,3.91,3.9099,3.9102,3.9101,3.9101,3.9101,3.91,3.91,3.91,3.91,0,3.9232,3.9229,3.9221,3.9212,3.9206,3.9198,3.919,3.9187,3.9176,3.917,3.916,3.9153,3.9139,3.9128,3.9115,3.9108,3.9102,3.9101,3.9099,3.9102,3.9106,3.9104,3.9106,3.9101,3.91,3.91,3.91,3.91,3.9231,3.9227,3.9218,3.921,3.9203,3.9196,3.9191,3.9183,3.9175,3.9164,3.9159,3.9149,3.9138,3.9121,3.9114,3.9105,3.9103,3.9102,3.9101,3.9101,3.9101,3.9108,3.9103,3.9103,3.9103,3.9103,3.9103,0,3.9228,3.9223,3.9216,3.9205,3.9199,3.9196,3.9187,3.9181,3.9173,3.9164,3.9156,3.9144,3.9134,3.9123,3.9111,3.9106,3.9103,3.9104,3.9104,3.9102,3.9103,3.9106,3.9106,3.9106,3.9106,3.9106,3.9106,3.9106,3.9226,3.9218,3.9214,3.9203,3.9197,3.9188,3.9183,3.9176,3.9169,3.9157,3.9149,3.9142,3.9133,3.9121,3.9111,3.9108,3.9104,3.9105,3.9101,3.9102,3.9102,3.9102,3.9104,3.9104,3.9104,3.91,3.91,3.91]}]]